FW7748 Weather Reports


time (UTC)temp
C
wind
direction
speed
KPH
gust
KPH
rain 1hr
cm
rain 24hr
cm
rain mn
cm
humidity
%
barometer
mb
20260504151039 16 5 1.6 16.1 0.00 0.00 0.00 49 1013.3
20260504150529 16 5 3.2 17.7 0.00 0.00 0.00 49 1013.3
20260504141050 14 5 4.8 20.9 0.00 0.00 0.00 47 1013.6
20260504140550 14 5 1.6 19.3 0.00 0.00 0.00 50 1013.7
20260504130510 12 5 1.6 14.5 0.00 0.00 0.00 54 1014.1
20260504110534 2 5 0.0 0.0 0.00 0.00 0.00 73 1014.2
20260504100547 1 5 0.0 0.0 0.00 0.00 0.00 73 1014.1
20260504081534 2 5 0.0 1.6 0.00 0.00 0.00 72 1014.4
20260504081028 2 5 0.0 1.6 0.00 0.00 0.00 72 1014.3
20260504080527 2 5 0.0 1.6 0.00 0.00 0.00 72 1014.3
20260504050559 4 5 0.0 0.0 0.00 0.00 0.00 69 1014.1
20260504050104 5 5 0.0 0.0 0.00 0.00 0.00 69 1014.1
20260504045552 5 5 0.0 0.0 0.00 0.00 0.00 69 1014.1
20260504045052 5 5 0.0 0.0 0.00 0.00 0.00 69 1014.0
20260504044546 5 5 0.0 1.6 0.00 0.00 0.00 69 1014.0
20260504044046 4 5 0.0 3.2 0.00 0.00 0.00 69 1014.0
20260504043536 5 5 0.0 0.0 0.00 0.00 0.00 69 1014.0
20260504043035 5 5 0.0 0.0 0.00 0.00 0.00 69 1014.1
20260504042524 5 5 0.0 0.0 0.00 0.00 0.00 69 1014.0
20260504042131 5 5 0.0 0.0 0.00 0.00 0.00 69 1013.9
20260504041607 5 5 0.0 0.0 0.00 0.00 0.00 68 1014.0
20260504041048 5 5 0.0 0.0 0.00 0.00 0.00 68 1013.9
20260504040550 6 5 0.0 0.0 0.00 0.00 0.00 68 1013.8
20260504040046 6 5 0.0 0.0 0.00 0.00 0.00 67 1013.8
20260504035533 6 5 0.0 0.0 0.00 0.00 0.00 67 1013.7
20260504035034 6 5 0.0 0.0 0.00 0.00 0.00 66 1013.5
20260504034524 6 5 0.0 0.0 0.00 0.00 0.00 66 1013.5
20260504034028 6 5 0.0 0.0 0.00 0.00 0.00 66 1013.5
20260504033518 6 5 0.0 0.0 0.00 0.00 0.00 66 1013.5
20260504033018 6 5 0.0 0.0 0.00 0.00 0.00 67 1013.4
20260504032511 6 5 0.0 0.0 0.00 0.00 0.00 66 1013.4
20260504032010 6 5 0.0 0.0 0.00 0.00 0.00 66 1013.4
20260504031600 6 5 0.0 0.0 0.00 0.00 0.00 66 1013.4
20260504031052 6 5 0.0 0.0 0.00 0.00 0.00 66 1013.3
20260504030555 6 5 0.0 0.0 0.00 0.00 0.00 66 1013.3
20260504030048 6 5 0.0 0.0 0.00 0.00 0.00 65 1013.3
20260504025548 6 5 0.0 0.0 0.00 0.00 0.00 65 1013.3
20260504025038 7 5 0.0 0.0 0.00 0.00 0.00 65 1013.3
20260504024545 7 5 0.0 0.0 0.00 0.00 0.00 65 1013.2
20260504024034 7 5 0.0 0.0 0.00 0.00 0.00 64 1013.3
20260504023532 7 5 0.0 0.0 0.00 0.00 0.00 64 1013.2
20260504023022 7 5 0.0 0.0 0.00 0.00 0.00 65 1013.3
20260504022523 7 5 0.0 0.0 0.00 0.00 0.00 64 1013.3
20260504022014 7 5 0.0 0.0 0.00 0.00 0.00 64 1013.3
20260504021512 7 5 0.0 0.0 0.00 0.00 0.00 64 1013.3
20260504021056 7 5 0.0 0.0 0.00 0.00 0.00 63 1013.3
20260504020558 7 5 0.0 0.0 0.00 0.00 0.00 63 1013.3
20260504020110 7 5 0.0 0.0 0.00 0.00 0.00 64 1013.2
20260504015552 7 5 0.0 0.0 0.00 0.00 0.00 63 1013.2
20260504015044 7 5 0.0 0.0 0.00 0.00 0.00 63 1013.2
20260504014543 7 5 0.0 0.0 0.00 0.00 0.00 63 1013.2
20260504014034 7 5 0.0 0.0 0.00 0.00 0.00 63 1013.2
20260504013540 7 5 0.0 0.0 0.00 0.00 0.00 62 1013.1
20260504013035 7 5 0.0 0.0 0.00 0.00 0.00 62 1013.2
20260504012538 8 5 0.0 0.0 0.00 0.00 0.00 61 1013.1
20260504012029 8 5 0.0 0.0 0.00 0.00 0.00 61 1013.1
20260504011529 8 5 0.0 0.0 0.00 0.00 0.00 60 1013.0
20260504011022 8 5 0.0 0.0 0.00 0.00 0.00 60 1013.0
20260504010520 8 5 0.0 0.0 0.00 0.00 0.00 60 1012.9
20260504010012 8 5 0.0 0.0 0.00 0.00 0.00 58 1012.9
20260504005512 9 5 0.0 0.0 0.00 0.00 0.00 58 1012.8
20260504005002 9 5 0.0 0.0 0.00 0.00 0.00 57 1012.8
20260504004505 9 5 0.0 0.0 0.00 0.00 0.00 56 1012.8
20260504004054 10 5 0.0 0.0 0.00 0.00 0.00 56 1012.6
20260504003554 10 5 0.0 0.0 0.00 0.00 0.00 55 1012.6
20260504003046 10 5 0.0 0.0 0.00 0.00 0.00 54 1012.5
20260504002544 10 5 0.0 0.0 0.00 0.00 0.00 53 1012.4
20260504002040 10 5 0.0 0.0 0.00 0.00 0.00 52 1012.4
20260504001543 11 5 0.0 0.0 0.00 0.00 0.00 53 1012.3
20260504001031 11 5 0.0 1.6 0.00 0.00 0.00 50 1012.2
20260504000528 11 5 0.0 8.0 0.00 0.00 0.00 48 1012.3
20260504000021 11 5 0.0 1.6 0.00 0.00 0.00 48 1012.2
20260503235518 12 5 0.0 0.0 0.00 0.00 0.00 48 1012.2
20260503235015 12 5 0.0 0.0 0.00 0.00 0.00 47 1012.1
20260503234512 12 5 0.0 1.6 0.00 0.00 0.00 46 1012.1
20260503234003 13 5 0.0 4.8 0.00 0.00 0.00 44 1012.1
20260503233506 13 5 0.0 4.8 0.00 0.00 0.00 41 1012.0
20260503233100 13 5 0.0 11.3 0.00 0.00 0.00 41 1011.8
20260503232558 13 5 0.0 11.3 0.00 0.00 0.00 39 1011.8
20260503232050 13 5 1.6 9.7 0.00 0.00 0.00 39 1011.8
20260503231550 13 5 3.2 9.7 0.00 0.00 0.00 40 1011.8
20260503231041 13 5 0.0 9.7 0.00 0.00 0.00 40 1011.8
20260503230544 14 5 1.6 12.9 0.00 0.00 0.00 39 1011.7
20260503230040 14 5 1.6 12.9 0.00 0.00 0.00 39 1011.7
20260503225536 14 5 3.2 11.3 0.00 0.00 0.00 38 1011.7
20260503225033 14 5 3.2 11.3 0.00 0.00 0.00 38 1011.7
20260503224532 15 5 3.2 11.3 0.00 0.00 0.00 38 1011.7
20260503224026 15 5 1.6 12.9 0.00 0.00 0.00 37 1011.6
20260503223524 15 5 3.2 14.5 0.00 0.00 0.00 37 1011.5
20260503223023 15 5 3.2 17.7 0.00 0.00 0.00 37 1011.5
20260503222522 15 5 4.8 17.7 0.00 0.00 0.00 36 1011.6
20260503222014 14 5 4.8 12.9 0.00 0.00 0.00 36 1011.6
20260503221512 15 5 1.6 14.5 0.00 0.00 0.00 37 1011.7
20260503221012 15 5 4.8 14.5 0.00 0.00 0.00 35 1011.5
20260503220510 15 5 4.8 16.1 0.00 0.00 0.00 36 1011.5
20260503215600 14 5 1.6 14.5 0.00 0.00 0.00 37 1011.6
20260503215058 15 5 3.2 14.5 0.00 0.00 0.00 37 1011.7
20260503214600 15 5 4.8 16.1 0.00 0.00 0.00 37 1011.5
20260503214058 14 5 4.8 16.1 0.00 0.00 0.00 37 1011.4
20260503213556 14 5 6.4 14.5 0.00 0.00 0.00 37 1011.4
20260503213052 15 5 6.4 14.5 0.00 0.00 0.00 36 1011.4
20260503212552 15 5 3.2 12.9 0.00 0.00 0.00 35 1011.4
20260503212046 15 5 3.2 11.3 0.00 0.00 0.00 35 1011.3
20260503211549 15 5 4.8 12.9 0.00 0.00 0.00 35 1011.3
20260503211036 15 5 4.8 19.3 0.00 0.00 0.00 35 1011.3
20260503210537 15 5 6.4 19.3 0.00 0.00 0.00 35 1011.3
20260503210032 15 5 6.4 20.9 0.00 0.00 0.00 36 1011.3
20260503205538 15 5 6.4 20.9 0.00 0.00 0.00 35 1011.2
20260503205029 15 5 6.4 14.5 0.00 0.00 0.00 36 1011.3
20260503204532 15 5 6.4 12.9 0.00 0.00 0.00 34 1011.4
20260503204020 15 5 3.2 14.5 0.00 0.00 0.00 38 1011.4
20260503203526 14 5 4.8 17.7 0.00 0.00 0.00 36 1011.4
20260503203015 15 5 8.0 20.9 0.00 0.00 0.00 36 1011.4
20260503202519 14 5 8.0 20.9 0.00 0.00 0.00 35 1011.5
20260503202013 14 5 1.6 20.9 0.00 0.00 0.00 36 1011.7
20260503201510 13 5 4.8 20.9 0.00 0.00 0.00 37 1011.8
20260503201100 14 5 6.4 17.7 0.00 0.00 0.00 35 1011.8
20260503200554 14 5 4.8 16.1 0.00 0.00 0.00 38 1011.7
20260503200501 14 5 4.8 16.1 0.00 0.00 0.00 37 1011.7
20260503200056 14 5 6.4 16.1 0.00 0.00 0.00 36 1011.8
20260503195548 13 5 4.8 12.9 0.00 0.00 0.00 35 1011.9
20260503195047 13 5 4.8 25.7 0.00 0.00 0.00 35 1012.0
20260503194541 13 5 8.0 25.7 0.00 0.00 0.00 37 1011.9
20260503194036 13 5 11.3 20.9 0.00 0.00 0.00 36 1012.1
20260503193529 13 5 6.4 24.1 0.00 0.00 0.00 35 1012.2
20260503193042 14 5 8.0 24.1 0.00 0.00 0.00 37 1012.3
20260503192520 13 5 4.8 17.7 0.00 0.00 0.00 40 1012.2
20260503192020 13 5 6.4 17.7 0.00 0.00 0.00 37 1012.3
20260503191524 13 5 6.4 24.1 0.00 0.00 0.00 39 1012.3
20260503191010 13 5 9.7 24.1 0.00 0.00 0.00 38 1012.3
20260503190503 13 5 4.8 17.7 0.00 0.00 0.00 41 1012.3
20260503185556 13 5 8.0 19.3 0.00 0.00 0.00 41 1012.5
20260503185056 13 5 6.4 19.3 0.00 0.00 0.00 40 1012.6
20260503184546 13 5 3.2 19.3 0.00 0.00 0.00 44 1012.5
20260503184048 12 5 8.0 19.3 0.00 0.00 0.00 37 1012.7
20260503183538 12 5 6.4 19.3 0.00 0.00 0.00 40 1012.7
20260503183038 12 5 9.7 20.9 0.00 0.00 0.00 39 1012.8
20260503182528 13 5 9.7 24.1 0.00 0.00 0.00 44 1012.8
20260503182026 13 5 8.0 20.9 0.00 0.00 0.00 39 1012.9
20260503181518 13 5 6.4 19.3 0.00 0.00 0.00 41 1012.7
20260503181024 12 5 8.0 17.7 0.00 0.00 0.00 44 1012.7